This is the latest recevied weather packets stored in our database for station/object KF6TYS-13. If no packets are shown the sender has not sent any weather packets the latest 10 day(s).
| Time | Temp. | Humidity | Pressure | Rain* | Wind** | Luminosity | Snow |
|---|---|---|---|---|---|---|---|
| 1777651218 | 54.44° C | 100% | 1014.7 hPa | 0 mm | - | - | - |
| 1777649417 | 54.44° C | 100% | 1014.4 hPa | 0 mm | - | - | - |
| 1777647617 | 54.44° C | 100% | 1014.2 hPa | 0 mm | - | - | - |
| 1777645816 | 54.44° C | 100% | 1014 hPa | 0 mm | - | - | - |
| 1777644014 | 53.33° C | 100% | 1013.7 hPa | 0 mm | - | - | - |
| 1777642214 | 53.33° C | 100% | 1013.3 hPa | 0 mm | - | - | - |
| 1777640413 | 53.33° C | 100% | 1013 hPa | 0 mm | - | - | - |
| 1777638612 | 52.78° C | 100% | 1013.1 hPa | 0 mm | - | - | - |
| 1777636841 | 52.22° C | 100% | 1012.9 hPa | 0 mm | - | - | - |
| 1777635041 | 52.78° C | 100% | 1013 hPa | 0 mm | - | - | - |
| 1777633239 | 52.78° C | 100% | 1012.9 hPa | 0 mm | - | - | - |
| 1777631438 | 52.78° C | 100% | 1012.9 hPa | 0 mm | - | - | - |
| 1777629637 | 52.78° C | 100% | 1013 hPa | 0 mm | - | - | - |
| 1777627837 | 52.78° C | 100% | 1013.1 hPa | 0 mm | - | - | - |
| 1777626035 | 52.78° C | 100% | 1013.3 hPa | 0 mm | - | - | - |
| 1777624235 | 52.78° C | 100% | 1013.4 hPa | 0 mm | - | - | - |
| 1777622433 | 53.33° C | 100% | 1013.4 hPa | 0 mm | - | - | - |
| 1777620633 | 53.33° C | 100% | 1013.2 hPa | 0 mm | - | - | - |
| 1777618832 | 53.33° C | 100% | 1013.2 hPa | 0 mm | - | - | - |
| 1777617031 | 53.33° C | 100% | 1013 hPa | 0 mm | - | - | - |
| 1777615230 | 53.33° C | 100% | 1013 hPa | 0 mm | - | - | - |
| 1777613429 | 53.89° C | 100% | 1013 hPa | 0 mm | - | - | - |
| 1777611628 | 53.89° C | 98% | 1012.7 hPa | 0 mm | - | - | - |
| 1777609827 | 53.89° C | 95% | 1012.5 hPa | 0 mm | - | - | - |
| 1777608026 | 55° C | 89% | 1012.2 hPa | 0 mm | - | - | - |
* Rain latest hour (hover to see other rain measurements)
** Current wind speed in m/s (hover to see current wind gust speed)